Regional Weather Roundup
Issued by NWS Boston, MA

Home | Current Version | Previous Version | Text Only | Print | Product List | Glossary On
Versions: 1 2 3 4 5 6 7 8 9 10 11 12 13 14 15 16 17 18 19 20 21 22 23 24 25 26 27 28 29 30 31 32 33 34 35 36 37 38 39 40 41 42 43 44 45 46 47 48 49 50
000
ASUS41 KBOX 021210
RWRBOX

REGIONAL WEATHER ROUNDUP
NATIONAL WEATHER SERVICE TAUNTON MA
800 AM EDT TUE SEP 02 2014

NOTE:  "FAIR" INDICATES FEW OR NO CLOUDS BELOW 12,000 FEET WITH NO
SIGNIFICANT WEATHER AND/OR OBSTRUCTIONS TO VISIBILITY.  THE FOLLOWING
OBSERVATION LOCATIONS DO NOT REPORT PRESENT WEATHER...PROVINCETOWN...
SMITHFIELD...BLOCK ISLAND...KEENE...AND OXFORD.

MAZALL-021300-
EASTERN MASSACHUSETTS

CITY           SKY/WX    TMP DP  RH WIND       PRES   REMARKS
BOSTON         MOSUNNY   75  71  87 S5        29.90S
6HR MIN TEMP:  71; 6HR MAX TEMP:  75;

BEVERLY        MOSUNNY   74  70  87 SW5       29.90S
LAWRENCE       MOSUNNY   73  71  93 SW5       29.92S
BEDFORD        SUNNY     73  71  93 VRB6      29.90R
BLUE HILL        N/A     73  71  93 S7        29.93R
NORWOOD        SUNNY     74  71  91 S6        29.91S
MARSHFIELD     MOSUNNY   73  72  94 SW5       29.93S
PLYMOUTH       FOG       71  69  93 S5        29.93S VSB 1/2
TAUNTON        CLOUDY    72  70  93 S3        29.92R FOG
NEW BEDFORD    FOG       71  71 100 S5        29.92S VSB 1
$$

MAZALL-021300-
CAPE COD AND THE ISLANDS

CITY           SKY/WX    TMP DP  RH WIND       PRES   REMARKS
FALMOUTH       FOG       72  72 100 SW6       29.94S VSB<1/4
HYANNIS        FOG       72  71  97 S7        29.93R VSB 1/4
CHATHAM        FOG       71  70  96 SW9       29.95R VSB 1/4
PROVINCETOWN   CLOUDY    72  70  94 S9        29.93R
NANTUCKET      FOG       70  70 100 SW8       29.95R VSB<1/4
MARTHAS VNYRD  FOG       71  71 100 SW6       29.94R VSB 1/4
$$

MAZALL-021300-
CENTRAL AND WESTERN MASSACHUSETTS

CITY           SKY/WX    TMP DP  RH WIND       PRES   REMARKS
WORCESTER      SUNNY     73  70  90 W7        29.95R
6HR MIN TEMP:  68; 6HR MAX TEMP:  73;

FITCHBURG      MOSUNNY   74  69  85 CALM      29.92S
ORANGE         CLOUDY    72  70  93 CALM      29.93R
SPRINGFIELD    CLOUDY    73  73  98 S6        29.92R
WESTFIELD      FOG       71  70  96 CALM      29.92R VSB 1/8
NORTH ADAMS    MOSUNNY   69  66  90 CALM      29.93R
PITTSFIELD     FOG       68  68 100 CALM      29.94S VSB 1/2
$$

RIZALL-021300-
RHODE ISLAND

CITY           SKY/WX    TMP DP  RH WIND       PRES   REMARKS
PROVIDENCE     CLOUDY    72  71  97 S6        29.93S FOG
6HR MIN TEMP:  71; 6HR MAX TEMP:  73;

NEWPORT        FOG       72  70  93 S8        29.94R VSB 1/4
BLOCK ISLAND   CLOUDY    72  70  94 SW9       29.95R VSB 1/2
SMITHFIELD     MOSUNNY   72  66  83 SW5       29.93S
WESTERLY       FOG       72  71  97 CALM      29.94R VSB<1/4
$$

CTZALL-021300-
CONNECTICUT

CITY           SKY/WX    TMP DP  RH WIND       PRES   REMARKS
BRADLEY INTL   MOSUNNY   75  71  87 S6        29.91R
6HR MIN TEMP:  72; 6HR MAX TEMP:  75;

HARTFORD       SUNNY     76  72  87 S3        29.92R
BRIDGEPORT     SUNNY     77  75  93 SW5       29.92R
DANBURY        SUNNY     73  70  90 CALM      29.94R
GROTON         FOG       71  71 100 S3        29.93R VSB<1/4
NEW HAVEN      PTSUNNY   77  75  93 CALM      29.93R FOG
CHESTER        CLOUDY    73  73 100 SW5       29.95R FOG
MERIDEN        FOG       73  72  96 S8        29.93R VSB 1
WILLIMANTIC    FOG       72  70  93 CALM      29.94R VSB 1
OXFORD         MOSUNNY   73  70  88 CALM      29.96S
$$

MEZ002-015-021-024-NHZ003-005-008-011-012-014-VTZ005-008-021300-
NORTHERN NEW ENGLAND

CITY           SKY/WX    TMP DP  RH WIND       PRES   REMARKS
PORTLAND ME    FOG       63  62  97 E3        29.92R VSB 1/4
6HR MIN TEMP:  62; 6HR MAX TEMP:  66;

BANGOR ME      FOG       65  64  97 S5        29.92S VSB 1/4
CONCORD NH     FOG       65  65 100 W3        29.91S VSB 1/4
MANCHESTER NH  PTSUNNY   71  68  90 CALM      29.89S FOG
NASHUA NH      SUNNY     74  72  93 CALM      29.91R
PORTSMOUTH NH  MOSUNNY   71  69  94 S2        29.90R
JAFFREY NH     FOG       70  70 100 S6        29.95R VSB 1/2
KEENE NH       CLOUDY    66  57  72 CALM      29.93S
BURLINGTON VT  MOSUNNY   76  68  76 S15G22    29.85R
MT. WASHINGTON FOG       55  55 100 W26         N/A  VSB 0
$$

NYZ052-076-021300-
EASTERN NEW YORK

CITY           SKY/WX    TMP DP  RH WIND       PRES   REMARKS
ALBANY         PTSUNNY   74  70  87 VRB7      29.89S
6HR MIN TEMP:  73; 6HR MAX TEMP:  76; 6HR PCP: TRACE;

NEW YORK CITY  PTSUNNY   81  72  74 SW6       29.91R
6HR MIN TEMP:  79; 6HR MAX TEMP:  81;

$$

ANZALL-021300-
MARINE OBSERVATIONS

STATION/POSITION TIME  TEMP    WIND        PRES    VSBY  WAVE
                       AIR SEA DIR/SP/G                  HT/PER
                 (UTC) (F)     (DEG/KT/KT) (MB)    (MI)  (FT/S)
BOSTON BUOY      1150   69 67  170/  4/  6 1012.9R         1/ 8
BUZZARDS BAY     1100          200/  7/  7 1014.3R
NANTUCKET SOUND  1150   71 71  210/  8/ 10 1013.6R         1/ 3
MASS BAY-STELLWA 1104   69 66  170/  6/  6   N/A    1 7/8  1/ 8
ISLE OF SHOALS   1200   71     190/ 10/ 10 1012.1R
S OF BLOCK IS    1108      69                N/A           3/ 6
$$

......................KEY.........................
  SKY/WX - SKY CONDITION/PRESENT WEATHER
  TMP    - TEMPERATURE IN FAHRENHEIT
  DWPT   - DEWPOINT IN FAHRENHEIT
  RH     - RELATIVE HUMIDITY IN PERCENT
  WIND   - DIRECTION AND SPEED IN MPH
  PRES   - MEAN SEA LEVEL PRESSURE IN INCHES OF HG
  WCI    - WIND CHILL INDEX
  VSB    - VISIBILITY IN MILES
  HX     - HEAT INDEX
  TC     - TEMPERATURE IN CELSIUS
  VRB    - VARIABLE WIND DIRECTION
  N/A    - NOT AVAILABLE


USA.gov is the U.S. government's official web portal to all federal, state and local government web resources and services.